Change the Weather History Date:

Saturday, June 29, 2013

  Actual Average Record
Temperature  
Mean Temperature 70 °F 64 °F  
Max Temperature 78 °F 74 °F 91 °F (1992)
Min Temperature 61 °F 53 °F 28 °F (1918)
Degree Days  
Heating Degree Days 0 3  
Month to date heating degree days 71 156  
Since 1 June heating degree days 71 156  
Since 1 July heating degree days 14876 13665  
Cooling Degree Days 5 2  
Month to date cooling degree days 128 19  
Year to date cooling degree days 141 20  
Since 1 June cooling degree days 128 19  
Growing Degree Days 20 (Base 50)    
Moisture  
Dew Point 56 °F    
Average Humidity 60    
Maximum Humidity 84    
Minimum Humidity 40    
Precipitation  
Precipitation 0.00 in 0.06 in 0.68 in (1955)
Month to date precipitation 0.43 1.31  
Year to date precipitation 2.77 3.47  
Snow  
Snow 0.00 in 0.00 in 0.00 in (2002)
Month to date snowfall 0.0 0.0  
Since 1 June snowfall 0.0 0.0  
Since 1 July snowfall 68.6 65.0  
Snow Depth 0.00 in    
Sea Level Pressure  
Sea Level Pressure 29.95 in    
Wind  
Wind Speed 3 mph (SE)    
Max Wind Speed 7 mph    
Max Gust Speed -    
Visibility 4 miles    
Events      
T = Trace of Precipitation, MM = Missing Value Source: NWS Daily Summary

Daily Weather History Graph

Daily Weather History Graph

Search for Another Location

Airport or City:

Trip Planner

Search our weather history database for the weather conditions in past years. The results will help you decide how hot, cold, wet, or windy it might be!

Date:

Astronomy

Jun. 29, 2013 Rise Set
Actual Time 3:09 AM AKDT 12:39 AM AKDT
Civil Twilight Sun does not rise Sun does not rise
Nautical Twilight Sun does not rise Sun does not rise
Astronomical Twilight Sun does not rise Sun does not rise
Moon 12:45 AM AKDT (6/29) 2:14 PM AKDT (6/29)
Length of Visible Light 24h 00m
Length of Day
21h 30m
Waning Gibbous, 54% of the Moon is Illuminated
Jun 29
Waning Gibbous
Jun 29
Last Quarter
Jul 7
New
Jul 15
First Quarter
Jul 22
Full

Hourly Weather History & Observations

Time (AKDT) Temp. Dew Point Humidity Pressure Visibility Wind Dir Wind Speed Gust Speed Precip Events Conditions
12:53 AM 69.1 °F 57.0 °F 65% 29.98 in 4.0 mi WSW 5.8 mph - N/A   Smoke
1:53 AM 68.0 °F 55.9 °F 65% 29.98 in 4.0 mi Calm Calm - N/A   Smoke
2:53 AM 64.9 °F 57.0 °F 75% 29.99 in 5.0 mi SE 3.5 mph - N/A   Smoke
3:53 AM 63.0 °F 57.0 °F 81% 29.99 in 5.0 mi West 3.5 mph - N/A   Smoke
4:53 AM 62.1 °F 55.0 °F 78% 29.99 in 5.0 mi NE 3.5 mph - N/A   Smoke
5:53 AM 63.0 °F 57.0 °F 81% 29.99 in 4.0 mi North 3.5 mph - N/A   Smoke
6:53 AM 63.0 °F 57.9 °F 84% 30.00 in 6.0 mi Calm Calm - N/A   Smoke
7:53 AM 64.4 °F 57.2 °F 77% 29.99 in 5.0 mi Calm Calm - N/A   Smoke
8:53 AM 66.2 °F 57.2 °F 73% 29.99 in 5.0 mi South 3.5 mph - N/A   Smoke
9:53 AM 66.2 °F 57.2 °F 73% 29.99 in 5.0 mi Calm Calm - N/A   Smoke
10:25 AM 68.0 °F 57.2 °F 68% 29.98 in 5.0 mi SSE 3.5 mph - N/A   Smoke
10:53 AM 69.8 °F 57.2 °F 64% 29.99 in 3.0 mi South 3.5 mph - N/A   Smoke
11:27 AM 69.8 °F 55.4 °F 60% 29.98 in 2.5 mi SSE 4.6 mph - N/A   Overcast
11:53 AM 71.6 °F 55.4 °F 57% 29.99 in 2.5 mi SSW 3.5 mph - N/A   Smoke
12:53 PM 71.6 °F 55.4 °F 57% 29.98 in 1.8 mi SSW 6.9 mph - N/A   Smoke
1:53 PM 71.6 °F 55.4 °F 57% 29.97 in 1.0 mi SSW 4.6 mph - N/A   Smoke
2:26 PM 72.0 °F 55.0 °F 55% 29.96 in 0.8 mi Calm Calm - N/A   Smoke
2:32 PM 71.6 °F 55.4 °F 57% 29.96 in 1.0 mi SSE 4.6 mph - N/A   Smoke
2:53 PM 73.4 °F 55.4 °F 53% 29.97 in 1.5 mi Variable 3.5 mph - N/A   Smoke
3:53 PM 73.4 °F 53.6 °F 50% 29.95 in 1.8 mi Calm Calm - N/A   Smoke
4:53 PM 78.8 °F 55.4 °F 44% 29.94 in 2.0 mi Calm Calm - N/A   Smoke
5:53 PM 77.0 °F 53.6 °F 44% 29.91 in 2.5 mi Calm Calm - N/A   Smoke
6:49 PM 77.0 °F 53.6 °F 44% 29.89 in 3.0 mi SE 4.6 mph - N/A   Smoke
6:53 PM 77.0 °F 53.6 °F 44% 29.90 in 3.0 mi ESE 6.9 mph - N/A   Smoke
7:53 PM 77.0 °F 55.4 °F 47% 29.89 in 3.0 mi East 4.6 mph - N/A   Smoke
8:53 PM 75.2 °F 55.4 °F 50% 29.88 in 4.0 mi East 3.5 mph - N/A   Smoke
9:53 PM 75.2 °F 55.4 °F 50% 29.88 in 4.0 mi East 3.5 mph - N/A   Smoke
10:50 PM 71.6 °F 57.2 °F 60% 29.87 in 4.0 mi East 3.5 mph - N/A   Smoke
10:53 PM 71.6 °F 57.2 °F 60% 29.88 in 4.0 mi East 3.5 mph - N/A   Smoke
11:53 PM 69.1 °F 55.0 °F 61% 29.88 in 4.0 mi NNE 5.8 mph - N/A   Smoke